Weather History for KPNE - June, 2013

Change the Weather History Date:

Sunday, June 30, 2013

  Actual Average Record
Temperature  
Mean Temperature 78 °F -  
Max Temperature 84 °F 84 °F 96 °F (2012)
Min Temperature 73 °F 64 °F 60 °F (2004)
Cooling Degree Days 12    
Growing Degree Days 28 (Base 50)    
Moisture  
Dew Point 72 °F    
Average Humidity 87    
Maximum Humidity 96    
Minimum Humidity 71    
Precipitation  
Precipitation 0.16 in - - ()
Sea Level Pressure  
Sea Level Pressure 29.82 in    
Wind  
Wind Speed 3 mph (SSE)    
Max Wind Speed 10 mph    
Max Gust Speed -    
Visibility 7 miles    
Events Rain , Thunderstorm    
Averages and records for this station are not official NWS values.
T = Trace of Precipitation, MM = Missing Value Source: NWS Daily Summary

Daily Weather History Graph

Daily Weather History Graph

Search for Another Location

Airport or City:

Trip Planner

Search our weather history database for the weather conditions in past years. The results will help you decide how hot, cold, wet, or windy it might be!

Date:

Astronomy

Jun. 30, 2013 Rise Set
Actual Time 5:34 AM EDT 8:33 PM EDT
Civil Twilight 5:01 AM EDT 9:05 PM EDT
Nautical Twilight 4:19 AM EDT 9:47 PM EDT
Astronomical Twilight 3:31 AM EDT 10:35 PM EDT
Moon 12:31 AM EDT (6/30) 1:45 PM EDT (6/30)
Length of Visible Light 16h 04m
Length of Day
14h 58m
Last Quarter, 45% of the Moon is Illuminated
Jun 30
Last Quarter
Jul 8
New
Jul 15
First Quarter
Jul 22
Full
Jul 29
Last Quarter

Hourly Weather History & Observations

Time (EDT) Temp. Heat Index Dew Point Humidity Pressure Visibility Wind Dir Wind Speed Gust Speed Precip Events Conditions
12:54 AM 75.0 °F - 71.1 °F 87% 29.73 in 10.0 mi South 3.5 mph - N/A   Clear
1:54 AM 75.0 °F - 71.1 °F 87% 29.73 in 10.0 mi SSE 3.5 mph - N/A   Clear
2:54 AM 73.9 °F - 71.1 °F 91% 29.73 in 9.0 mi Calm Calm - N/A   Clear
3:49 AM 73.4 °F - 71.6 °F 94% 29.74 in 9.0 mi SSE 3.5 mph - N/A   Mostly Cloudy
3:54 AM 73.0 °F - 71.1 °F 93% 29.73 in 8.0 mi SSE 3.5 mph - N/A   Mostly Cloudy
4:54 AM 73.0 °F - 71.1 °F 93% 29.74 in 6.0 mi Calm Calm - N/A   Mostly Cloudy
5:06 AM 73.4 °F - 71.6 °F 94% 29.75 in 6.0 mi Calm Calm - N/A   Scattered Clouds
5:34 AM 73.4 °F - 71.6 °F 94% 29.76 in 6.0 mi Calm Calm - N/A   Mostly Cloudy
5:46 AM 73.4 °F - 71.6 °F 94% 29.76 in 5.0 mi Calm Calm - N/A   Scattered Clouds
5:54 AM 73.0 °F - 72.0 °F 96% 29.76 in 5.0 mi SSE 3.5 mph - N/A   Partly Cloudy
6:29 AM 73.4 °F - 71.6 °F 94% 29.78 in 5.0 mi Calm Calm - N/A   Mostly Cloudy
6:40 AM 73.4 °F - 71.6 °F 94% 29.79 in 5.0 mi Calm Calm - N/A   Mostly Cloudy
6:54 AM 73.0 °F - 72.0 °F 96% 29.79 in 5.0 mi Calm Calm - N/A   Mostly Cloudy
7:54 AM 73.9 °F - 72.0 °F 93% 29.81 in 4.0 mi Calm Calm - N/A   Overcast
8:54 AM 75.9 °F - 73.0 °F 91% 29.82 in 5.0 mi Calm Calm - N/A   Overcast
9:36 AM 77.0 °F - 73.4 °F 89% 29.82 in 5.0 mi Calm Calm - N/A   Overcast
9:54 AM 78.1 °F - 73.0 °F 84% 29.82 in 6.0 mi Calm Calm - N/A   Haze
10:25 AM 80.6 °F 85.4 °F 73.4 °F 79% 29.82 in 6.0 mi SSW 5.8 mph - N/A   Haze
10:54 AM 80.1 °F 84.2 °F 73.0 °F 79% 29.82 in 7.0 mi Variable 3.5 mph - N/A   Mostly Cloudy
11:02 AM 80.6 °F 85.4 °F 73.4 °F 79% 29.82 in 7.0 mi SSW 4.6 mph - N/A   Scattered Clouds
11:24 AM 82.4 °F 88.2 °F 73.4 °F 74% 29.82 in 10.0 mi Calm Calm - N/A   Mostly Cloudy
11:54 AM 82.0 °F 86.7 °F 72.0 °F 71% 29.81 in 10.0 mi ESE 5.8 mph - N/A   Mostly Cloudy
12:54 PM 81.0 °F 84.9 °F 71.1 °F 72% 29.82 in 9.0 mi South 5.8 mph - 0.00 in Rain Light Rain
1:08 PM 80.6 °F 84.6 °F 71.6 °F 74% 29.82 in 10.0 mi South 3.5 mph - 0.00 in Rain , Thunderstorm Light Rain
1:29 PM 78.8 °F - 73.4 °F 83% 29.82 in 5.0 mi SSE 3.5 mph - 0.00 in Rain , Thunderstorm Light Rain
1:36 PM 78.8 °F - 73.4 °F 83% 29.83 in 3.0 mi South 4.6 mph - 0.02 in Rain Rain
1:39 PM 78.8 °F - 73.4 °F 83% 29.83 in 3.0 mi South 3.5 mph - 0.03 in Rain , Thunderstorm Rain
1:54 PM 77.0 °F - 73.9 °F 90% 29.82 in 3.0 mi South 4.6 mph - 0.05 in Rain , Thunderstorm Rain
2:05 PM 77.0 °F - 73.4 °F 89% 29.83 in 4.0 mi SSW 5.8 mph - 0.01 in Rain Light Rain
2:18 PM 75.2 °F - 73.4 °F 94% 29.84 in 2.5 mi SW 10.4 mph - 0.05 in Rain Rain
2:32 PM 73.4 °F - 71.6 °F 94% 29.85 in 3.0 mi Variable 3.5 mph - 0.08 in Rain Rain
2:54 PM 73.0 °F - 70.0 °F 90% 29.84 in 7.0 mi SSE 5.8 mph - 0.09 in Rain Light Rain
3:54 PM 73.0 °F - 69.1 °F 87% 29.84 in 7.0 mi SW 3.5 mph - 0.02 in Rain Light Rain
4:54 PM 77.0 °F - 72.0 °F 84% 29.83 in 10.0 mi SSE 4.6 mph - 0.00 in   Partly Cloudy
5:54 PM 78.1 °F - 71.1 °F 79% 29.83 in 10.0 mi Calm Calm - N/A   Clear
6:54 PM 77.0 °F - 71.1 °F 82% 29.84 in 10.0 mi SSE 3.5 mph - N/A   Clear
7:54 PM 77.0 °F - 71.1 °F 82% 29.86 in 10.0 mi Calm Calm - N/A   Clear
8:54 PM 75.9 °F - 72.0 °F 87% 29.88 in 10.0 mi SE 3.5 mph - N/A   Clear
9:54 PM 75.9 °F - 72.0 °F 87% 29.89 in 10.0 mi SE 6.9 mph - N/A   Clear
10:41 PM 75.2 °F - 71.6 °F 89% 29.91 in 10.0 mi Calm Calm - N/A   Mostly Cloudy
10:54 PM 75.0 °F - 72.0 °F 90% 29.91 in 10.0 mi SE 5.8 mph - N/A   Mostly Cloudy
11:07 PM 75.2 °F - 71.6 °F 89% 29.91 in 10.0 mi ESE 5.8 mph - N/A   Overcast
11:54 PM 73.9 °F - 72.0 °F 93% 29.91 in 10.0 mi SSE 3.5 mph - N/A   Overcast